FW2602 Weather Reports


Display with metric or nautical units.
time (UTC)temp
F
wind
direction
speed
MPH
gust
MPH
rain 1hr
in
rain 24hr
in
rain mn
in
humidity
%
barometer
mb
20260507192508 50 322 4.0 12.0 0.00 0.05 0.00 48 1009.1
20260507192014 50 280 4.0 16.0 0.00 0.05 0.00 50 1009.1
20260507191512 51 317 4.0 16.0 0.00 0.05 0.00 53 1009.1
20260507191016 50 293 11.0 16.0 0.00 0.05 0.00 54 1009.0
20260507190527 49 305 10.0 16.0 0.00 0.05 0.00 53 1009.3
20260507190012 49 301 6.0 15.0 0.00 0.05 0.00 53 1009.4
20260507185524 49 287 8.0 18.0 0.00 0.05 0.00 52 1009.4
20260507185012 49 297 11.0 22.0 0.00 0.05 0.00 54 1009.3
20260507184530 50 294 10.0 22.0 0.00 0.05 0.00 54 1009.3
20260507184012 50 288 11.0 21.0 0.00 0.05 0.00 54 1009.4
20260507183521 50 291 14.0 21.0 0.00 0.05 0.00 57 1009.5
20260507183006 50 307 10.0 17.0 0.00 0.05 0.00 58 1009.7
20260507182518 49 289 2.0 11.0 0.00 0.05 0.00 57 1009.7
20260507182018 49 301 3.0 11.0 0.00 0.05 0.00 59 1009.7
20260507181526 49 272 3.0 8.0 0.00 0.05 0.00 60 1009.9
20260507181016 50 289 3.0 12.0 0.00 0.05 0.00 60 1009.7
20260507180526 49 271 6.0 17.0 0.00 0.05 0.00 58 1009.8
20260507180026 49 293 9.0 17.0 0.00 0.05 0.00 56 1009.8
20260507175528 49 318 7.0 16.0 0.00 0.09 0.00 59 1009.9
20260507175012 48 285 7.0 15.0 0.00 0.09 0.00 60 1009.8
20260507174523 48 295 6.0 15.0 0.00 0.09 0.00 62 1009.8
20260507174008 47 302 4.0 10.0 0.00 0.09 0.00 60 1009.8
20260507173516 48 276 1.0 11.0 0.00 0.09 0.00 60 1009.9
20260507173004 47 328 5.0 13.0 0.00 0.09 0.00 58 1009.9
20260507172516 48 293 5.0 10.0 0.00 0.09 0.00 58 1010.0
20260507172015 48 298 3.0 16.0 0.00 0.09 0.00 56 1010.0
20260507171507 48 283 4.0 16.0 0.00 0.09 0.00 58 1009.8
20260507171016 48 315 5.0 17.0 0.00 0.09 0.00 58 1009.9
20260507170528 48 293 6.0 17.0 0.00 0.09 0.00 55 1009.9
20260507170011 48 296 5.0 13.0 0.00 0.09 0.00 58 1009.8
20260507165521 48 296 2.0 12.0 0.00 0.16 0.00 57 1010.0
20260507165010 48 271 5.0 10.0 0.00 0.16 0.00 56 1010.0
20260507164517 49 323 3.0 17.0 0.00 0.16 0.00 58 1010.1
20260507164005 48 308 8.0 17.0 0.00 0.16 0.00 57 1010.2
20260507163518 48 287 10.0 16.0 0.00 0.16 0.00 56 1010.1
20260507163020 48 301 9.0 14.0 0.00 0.16 0.00 55 1010.2
20260507162515 49 276 5.0 13.0 0.00 0.16 0.00 56 1010.2
20260507162018 50 316 5.0 12.0 0.00 0.16 0.00 59 1010.3
20260507161531 49 225 2.0 12.0 0.00 0.16 0.00 57 1010.2
20260507161013 49 295 4.0 13.0 0.00 0.16 0.00 58 1010.4
20260507160524 49 289 7.0 13.0 0.00 0.16 0.00 56 1010.5
20260507160013 48 302 5.0 13.0 0.00 0.16 0.00 56 1010.4
20260507155520 47 203 7.0 16.0 0.00 0.20 0.00 59 1010.5
20260507155007 47 295 10.0 19.0 0.00 0.20 0.00 58 1010.7
20260507154519 47 300 10.0 19.0 0.00 0.20 0.00 61 1010.7
20260507154024 47 287 5.0 18.0 0.00 0.20 0.00 59 1010.7
20260507153513 47 289 10.0 15.0 0.00 0.20 0.00 60 1010.7
20260507153014 47 285 8.0 15.0 0.00 0.20 0.00 62 1010.8
20260507152522 46 294 6.0 12.0 0.00 0.20 0.00 63 1010.7
20260507152010 46 294 7.0 15.0 0.00 0.20 0.00 60 1010.7
20260507151521 46 273 5.0 15.0 0.00 0.20 0.00 59 1010.7
20260507151005 46 287 2.0 15.0 0.00 0.20 0.00 59 1010.9
20260507150518 46 278 4.0 14.0 0.00 0.20 0.00 60 1010.8
20260507150017 46 333 6.0 12.0 0.00 0.20 0.00 60 1010.8
20260507145512 46 290 4.0 9.0 0.00 0.28 0.00 60 1010.9
20260507145022 46 293 2.0 12.0 0.00 0.28 0.00 60 1010.8
20260507144533 46 313 3.0 12.0 0.00 0.28 0.00 62 1010.9
20260507144013 45 305 1.0 11.0 0.00 0.28 0.00 61 1010.9
20260507143525 45 336 2.0 12.0 0.00 0.28 0.00 60 1011.0
20260507143018 45 302 6.0 12.0 0.00 0.28 0.00 61 1011.0
20260507142519 44 274 6.0 11.0 0.00 0.28 0.00 60 1010.9
20260507142020 44 295 5.0 20.0 0.00 0.28 0.00 59 1010.9
20260507141510 44 290 3.0 20.0 0.00 0.28 0.00 60 1011.0
20260507141013 44 283 8.0 17.0 0.00 0.28 0.00 59 1011.0
20260507140521 44 290 4.0 13.0 0.00 0.28 0.00 62 1010.9
20260507140006 43 302 5.0 13.0 0.00 0.28 0.00 61 1010.9
20260507135515 43 314 6.0 16.0 0.00 0.35 0.00 62 1010.9
20260507135021 43 304 8.0 16.0 0.00 0.35 0.00 61 1011.0
20260507134517 43 270 9.0 15.0 0.00 0.35 0.00 63 1011.0
20260507134015 43 256 9.0 15.0 0.00 0.35 0.00 61 1010.9
20260507133525 43 285 8.0 19.0 0.00 0.35 0.00 63 1010.9
20260507133013 42 298 4.0 12.0 0.00 0.35 0.00 66 1010.9
20260507132524 42 358 2.0 12.0 0.00 0.35 0.00 63 1010.8
20260507132020 42 297 4.0 14.0 0.00 0.35 0.00 63 1011.0
20260507131518 42 300 4.0 14.0 0.00 0.35 0.00 65 1011.0
20260507131018 42 273 5.0 12.0 0.00 0.35 0.00 63 1011.0
20260507130513 42 120 6.0 16.0 0.00 0.35 0.00 64 1011.0
20260507130013 41 311 6.0 19.0 0.00 0.35 0.00 63 1011.0
20260507125621 41 285 9.0 19.0 0.00 0.38 0.00 62 1011.0
20260507125007 41 281 3.0 13.0 0.00 0.38 0.00 63 1011.0
20260507124020 41 299 4.0 11.0 0.00 0.38 0.00 64 1011.0
20260507123512 41 278 3.0 10.0 0.00 0.38 0.00 64 1010.9
20260507123016 40 277 3.0 8.0 0.00 0.38 0.00 67 1011.0
20260507122509 40 312 4.0 9.0 0.00 0.38 0.00 67 1010.8
20260507122015 40 294 4.0 9.0 0.00 0.38 0.00 67 1010.9
20260507121523 40 297 3.0 7.0 0.00 0.38 0.00 69 1010.9
20260507121013 39 295 2.0 9.0 0.00 0.38 0.00 70 1010.9
20260507120607 39 287 3.0 11.0 0.00 0.38 0.00 70 1010.8
20260507120041 39 271 6.0 11.0 0.00 0.38 0.00 71 1010.8
20260507115532 38 284 4.0 14.0 0.00 0.44 0.00 72 1010.8
20260507115032 38 280 7.0 14.0 0.00 0.44 0.00 71 1010.8
20260507114531 38 308 8.0 12.0 0.00 0.44 0.00 72 1010.8
20260507114031 38 285 3.0 10.0 0.00 0.44 0.00 73 1010.8
20260507113529 38 300 5.0 10.0 0.00 0.44 0.00 74 1010.7
20260507113039 37 287 4.0 13.0 0.00 0.44 0.00 75 1010.7
20260507112528 37 297 4.0 13.0 0.00 0.44 0.00 75 1010.6
20260507112029 37 273 5.0 13.0 0.00 0.44 0.00 74 1010.6
20260507111528 37 292 6.0 13.0 0.00 0.44 0.00 75 1010.6
20260507111026 37 302 7.0 12.0 0.00 0.44 0.00 76 1010.5
20260507110528 37 297 6.0 13.0 0.00 0.44 0.00 77 1010.3
20260507110027 37 293 8.0 13.0 0.00 0.44 0.00 77 1010.4
20260507105524 37 291 7.0 13.0 0.00 0.46 0.00 77 1010.3
20260507105023 37 313 6.0 12.0 0.00 0.46 0.00 78 1010.3
20260507104523 36 292 6.0 14.0 0.00 0.46 0.00 80 1010.2
20260507104022 36 298 7.0 14.0 0.00 0.46 0.00 80 1010.2
20260507103520 36 295 8.0 13.0 0.00 0.46 0.00 80 1010.1
20260507103019 37 295 7.0 13.0 0.00 0.46 0.00 80 1010.1
20260507102518 37 283 7.0 13.0 0.00 0.46 0.00 80 1009.9
20260507102017 36 308 7.0 12.0 0.00 0.46 0.00 81 1009.9
20260507101517 37 297 4.0 12.0 0.00 0.46 0.00 81 1009.9
20260507101016 37 300 6.0 11.0 0.00 0.46 0.00 81 1009.9
20260507100515 37 279 5.0 11.0 0.00 0.46 0.00 81 1009.9
20260507100023 37 282 6.0 11.0 0.00 0.46 0.00 83 1009.9
20260507095513 37 299 7.0 11.0 0.00 0.46 0.00 83 1009.9
20260507095013 37 297 7.0 11.0 0.00 0.46 0.00 84 1009.9
20260507094512 37 291 6.0 11.0 0.00 0.46 0.00 84 1009.9
20260507094011 37 281 5.0 10.0 0.00 0.46 0.00 84 1009.9
20260507093509 38 295 7.0 11.0 0.00 0.46 0.00 84 1009.9
20260507093010 38 300 6.0 11.0 0.00 0.46 0.00 84 1009.9
20260507092508 38 302 6.0 11.0 0.00 0.46 0.00 84 1009.7
20260507092006 38 276 4.0 10.0 0.00 0.46 0.00 85 1009.8
20260507091505 38 295 5.0 11.0 0.00 0.46 0.00 85 1009.7
20260507091005 38 300 5.0 11.0 0.00 0.46 0.00 85 1009.8
20260507090505 39 287 7.0 11.0 0.00 0.46 0.00 85 1009.9
20260507090004 39 315 6.0 13.0 0.00 0.46 0.00 85 1009.7
20260507085503 39 297 7.0 13.0 0.00 0.46 0.00 86 1009.8
20260507085003 39 302 4.0 11.0 0.00 0.46 0.00 86 1009.8
20260507084502 39 295 6.0 11.0 0.00 0.46 0.00 86 1009.8
20260507084002 39 307 5.0 9.0 0.00 0.46 0.00 86 1009.7
20260507083501 39 312 5.0 11.0 0.00 0.46 0.00 86 1009.6
20260507083101 39 304 6.0 11.0 0.00 0.46 0.00 86 1009.6
20260507082603 39 277 7.0 11.0 0.00 0.46 0.00 86 1009.7
20260507082059 39 300 7.0 12.0 0.00 0.46 0.00 86 1009.7
20260507081602 39 297 8.0 12.0 0.00 0.46 0.00 86 1009.7
20260507081058 39 298 7.0 11.0 0.00 0.46 0.00 86 1009.7
20260507080558 40 283 6.0 11.0 0.00 0.46 0.00 86 1009.7
20260507080056 40 301 5.0 9.0 0.00 0.46 0.00 87 1009.8
20260507075556 40 278 6.0 9.0 0.00 0.46 0.00 87 1009.8
20260507075055 40 273 4.0 7.0 0.00 0.46 0.00 87 1009.8
20260507074554 40 253 3.0 12.0 0.00 0.46 0.00 88 1009.9
20260507074053 40 281 7.0 13.0 0.00 0.46 0.00 89 1010.1
20260507073555 41 290 5.0 13.0 0.00 0.46 0.00 91 1010.0
20260507073118 41 311 7.0 13.0 0.00 0.46 0.00 92 1010.0
20260507072549 41 300 8.0 13.0 0.00 0.46 0.00 93 1009.8
20260507072047 41 283 5.0 12.0 0.00 0.46 0.00 93 1009.9
20260507071546 41 264 3.0 12.0 0.00 0.46 0.00 93 1009.8
20260507071045 41 290 5.0 10.0 0.00 0.46 0.00 93 1009.8
20260507070544 42 287 4.0 9.0 0.00 0.46 0.00 93 1009.7
20260507070044 42 283 3.0 8.0 0.00 0.46 0.00 93 1009.5
20260507065543 42 294 1.0 10.0 0.00 0.46 0.00 92 1009.5
20260507065042 42 293 4.0 10.0 0.00 0.46 0.00 92 1009.5
20260507064555 42 297 5.0 8.0 0.00 0.46 0.00 92 1009.4
20260507064041 42 300 5.0 10.0 0.00 0.46 0.00 92 1009.3
20260507063543 42 288 5.0 10.0 0.00 0.46 0.00 92 1009.2
20260507063047 42 294 6.0 12.0 0.00 0.46 0.00 92 1009.1
20260507062539 42 290 7.0 11.0 0.00 0.46 0.00 93 1009.0
20260507062039 42 283 5.0 9.0 0.00 0.46 0.00 93 1008.7
20260507061540 42 267 4.0 7.0 0.00 0.46 0.00 93 1008.6
20260507061036 42 297 3.0 6.0 0.00 0.46 0.00 94 1008.6
20260507060535 42 297 1.0 5.0 0.00 0.46 0.00 94 1008.9
20260507060035 42 278 1.0 4.0 0.00 0.46 0.00 94 1009.0
20260507055535 42 287 1.0 4.0 0.00 0.46 0.00 94 1009.2
20260507055034 42 281 0.0 5.0 0.00 0.46 0.00 94 1009.2
20260507054535 42 295 2.0 5.0 0.00 0.46 0.00 93 1009.1
20260507054035 42 290 0.0 5.0 0.00 0.46 0.00 93 1009.1
20260507053531 42 301 2.0 6.0 0.00 0.46 0.00 93 1009.2
20260507053035 42 306 2.0 6.0 0.00 0.46 0.00 93 1009.2
20260507052530 42 297 2.0 7.0 0.00 0.46 0.00 93 1009.0
20260507052031 42 285 4.0 7.0 0.00 0.46 0.00 93 1009.0
20260507051529 42 299 3.0 6.0 0.00 0.46 0.00 93 1009.0
20260507051030 42 295 1.0 4.0 0.00 0.46 0.00 93 1009.0
20260507050527 42 297 2.0 4.0 0.00 0.46 0.00 93 1009.1
20260507050027 42 287 2.0 4.0 0.00 0.46 0.00 93 1009.2
20260507045526 42 293 2.0 4.0 0.00 0.46 0.00 93 1009.1
20260507045026 42 297 1.0 2.0 0.00 0.46 0.00 93 1009.1
20260507044524 42 297 0.0 2.0 0.00 0.46 0.00 92 1008.8
20260507044023 42 297 0.0 3.0 0.00 0.46 0.00 93 1008.9
20260507043522 42 293 1.0 4.0 0.00 0.46 0.00 93 1009.2
20260507043023 42 300 1.0 4.0 0.00 0.46 0.00 93 1009.2
20260507042521 42 297 1.0 6.0 0.00 0.46 0.00 93 1009.3
20260507042020 42 288 2.0 6.0 0.00 0.46 0.00 93 1009.4
20260507041520 43 300 3.0 5.0 0.00 0.46 0.00 93 1009.2
20260507041019 43 293 1.0 6.0 0.00 0.46 0.00 93 1009.1
20260507040518 43 295 2.0 5.0 0.00 0.46 0.00 93 1009.3
20260507040017 43 290 0.0 5.0 0.00 0.46 0.00 93 1009.3
20260507035517 43 263 2.0 6.0 0.00 0.46 0.46 93 1009.6
20260507035017 43 286 3.0 5.0 0.00 0.46 0.46 93 1009.5
20260507034516 43 295 2.0 4.0 0.00 0.46 0.46 93 1009.4
20260507034016 43 294 2.0 6.0 0.00 0.46 0.46 93 1009.4
20260507033518 43 302 3.0 8.0 0.00 0.46 0.46 93 1009.1
20260507033015 43 290 4.0 8.0 0.00 0.46 0.46 93 1009.4
20260507032514 43 309 3.0 7.0 0.00 0.46 0.46 93 1009.4
20260507032015 43 294 3.0 7.0 0.00 0.46 0.46 93 1009.3
20260507031514 43 300 3.0 7.0 0.00 0.46 0.46 93 1009.4
20260507031014 43 295 2.0 7.0 0.00 0.46 0.46 94 1009.5
20260507030515 43 278 1.0 5.0 0.00 0.46 0.46 94 1009.3
20260507030014 43 293 2.0 5.0 0.00 0.46 0.46 94 1009.2
20260507025513 43 299 3.0 5.0 0.00 0.46 0.46 94 1009.3
20260507025013 43 288 3.0 5.0 0.00 0.46 0.46 94 1009.2
20260507024514 43 276 2.0 6.0 0.00 0.46 0.46 94 1009.2
20260507024012 43 298 2.0 6.0 0.00 0.46 0.46 94 1009.4
20260507023513 43 310 2.0 7.0 0.00 0.46 0.46 94 1009.4
20260507023010 43 295 2.0 7.0 0.00 0.46 0.46 94 1009.2
20260507022512 43 297 3.0 8.0 0.00 0.46 0.46 94 1009.6
20260507022011 43 318 3.0 10.0 0.00 0.46 0.46 94 1009.4
20260507021509 43 288 5.0 10.0 0.00 0.46 0.46 94 1009.8
20260507021012 43 298 4.0 11.0 0.00 0.46 0.46 94 1009.6
20260507020508 43 276 5.0 11.0 0.00 0.46 0.46 95 1009.6
20260507020009 43 309 5.0 11.0 0.00 0.46 0.46 95 1009.6
20260507015506 43 295 7.0 10.0 0.00 0.46 0.46 95 1009.6
20260507015005 44 287 5.0 8.0 0.00 0.46 0.46 95 1009.6
20260507014504 44 286 3.0 8.0 0.00 0.46 0.46 95 1009.3
20260507014005 44 273 3.0 8.0 0.00 0.46 0.46 95 1009.4
20260507013502 44 301 2.0 6.0 0.00 0.46 0.46 95 1009.3
20260507013003 44 295 2.0 9.0 0.00 0.46 0.46 95 1009.3
20260507012502 44 304 2.0 9.0 0.01 0.46 0.46 95 1009.2
20260507012001 44 295 4.0 8.0 0.01 0.46 0.46 95 1009.2
20260507011601 44 292 4.0 9.0 0.01 0.46 0.46 95 1009.2
20260507011101 44 301 3.0 9.0 0.01 0.46 0.46 95 1009.0
20260507010600 44 290 4.0 8.0 0.01 0.46 0.46 95 1009.1
20260507010059 44 300 3.0 6.0 0.01 0.46 0.46 95 1009.0
20260507005603 44 290 2.0 6.0 0.01 0.46 0.46 95 1009.0
20260507005057 44 292 2.0 9.0 0.01 0.46 0.46 95 1008.8
20260507004557 44 314 7.0 10.0 0.01 0.46 0.46 95 1008.8
20260507004056 44 304 5.0 10.0 0.01 0.46 0.46 95 1008.6
20260507003524 44 294 5.0 13.0 0.01 0.46 0.46 95 1008.6
20260507003009 44 304 6.0 13.0 0.01 0.46 0.46 95 1008.6
20260507002519 45 305 5.0 10.0 0.00 0.45 0.45 95 1008.4
20260507002007 45 280 5.0 10.0 0.00 0.45 0.45 95 1008.4
20260507001517 45 311 4.0 9.0 0.00 0.45 0.45 95 1008.4
20260507001017 45 274 4.0 9.0 0.00 0.45 0.45 95 1008.4
20260507000509 45 288 2.0 8.0 0.00 0.45 0.45 94 1008.4
20260507000018 45 297 2.0 12.0 0.00 0.45 0.45 94 1008.4
20260506235510 45 290 3.0 12.0 0.00 0.45 0.45 94 1008.3
20260506235019 45 290 3.0 15.0 0.00 0.45 0.45 94 1008.0
20260506234543 45 299 4.0 15.0 0.00 0.45 0.45 94 1007.8
20260506234017 45 297 9.0 14.0 0.00 0.45 0.45 94 1007.7
20260506233524 45 267 6.0 12.0 0.00 0.45 0.45 95 1007.7
20260506233011 45 262 8.0 12.0 0.00 0.45 0.45 95 1007.6
20260506232521 45 290 5.0 10.0 0.00 0.45 0.45 95 1007.6
20260506232005 45 298 7.0 10.0 0.00 0.45 0.45 95 1007.6
20260506231517 45 311 5.0 11.0 0.00 0.45 0.45 95 1007.3
20260506231020 45 263 5.0 11.0 0.00 0.45 0.45 95 1007.2
20260506230510 45 291 4.0 8.0 0.00 0.45 0.45 95 1007.0
20260506230017 45 297 6.0 0.0 0.00 0.00 0.45 95 1007.0
20260506225531 45 286 5.0 11.0 0.00 0.45 0.45 95 1007.1
20260506225014 45 270 5.0 12.0 0.00 0.45 0.45 95 1007.1
20260506224528 45 311 7.0 12.0 0.00 0.45 0.45 95 1007.2
20260506224008 45 301 6.0 12.0 0.00 0.45 0.45 95 1007.1
20260506223518 45 287 7.0 16.0 0.00 0.45 0.45 95 1007.0
20260506223008 45 288 7.0 16.0 0.00 0.45 0.45 95 1006.9
20260506222522 45 290 8.0 15.0 0.00 0.45 0.45 95 1006.8
20260506222008 45 300 7.0 14.0 0.00 0.45 0.45 95 1006.6
20260506221520 46 280 7.0 13.0 0.00 0.45 0.45 95 1006.6
20260506221025 46 297 7.0 13.0 0.00 0.45 0.45 95 1006.5
20260506220513 46 297 7.0 13.0 0.01 0.45 0.45 95 1006.4
20260506220031 46 320 7.0 13.0 0.01 0.45 0.45 95 1006.4
20260506215512 46 295 5.0 13.0 0.01 0.48 0.45 95 1006.2
20260506215017 47 302 7.0 13.0 0.01 0.48 0.45 95 1006.1
20260506214510 47 301 6.0 12.0 0.01 0.48 0.45 96 1006.0
20260506214019 47 283 6.0 11.0 0.02 0.48 0.45 96 1005.9
20260506213509 47 298 2.0 10.0 0.02 0.48 0.45 96 1005.8
20260506213018 47 303 4.0 10.0 0.02 0.48 0.45 96 1005.7
20260506212514 48 300 2.0 6.0 0.02 0.48 0.45 96 1005.5
20260506212019 48 277 0.0 3.0 0.02 0.48 0.45 96 1005.1
20260506211517 48 312 1.0 6.0 0.02 0.48 0.45 95 1005.4
20260506211017 48 330 1.0 6.0 0.03 0.48 0.45 95 1005.4
20260506210509 48 300 1.0 5.0 0.02 0.47 0.44 95 1005.4
20260506210015 48 314 1.0 5.0 0.02 0.47 0.44 95 1005.1
20260506205526 48 271 0.0 5.0 0.02 0.47 0.44 95 1005.1
20260506205014 48 221 1.0 5.0 0.03 0.47 0.44 95 1005.0
20260506204526 48 127 1.0 6.0 0.03 0.47 0.44 95 1005.0
20260506204013 48 318 1.0 6.0 0.02 0.46 0.43 95 1004.9
20260506203524 48 315 0.0 4.0 0.02 0.46 0.43 95 1004.8
20260506203014 48 300 0.0 5.0 0.02 0.46 0.43 95 1004.7
20260506202523 48 309 1.0 5.0 0.02 0.46 0.43 95 1004.7
20260506202010 48 317 1.0 5.0 0.02 0.46 0.43 94 1004.5
20260506201518 48 288 1.0 4.0 0.02 0.46 0.43 94 1004.4
20260506201009 49 302 0.0 2.0 0.01 0.45 0.42 94 1004.4
20260506200520 49 329 0.0 4.0 0.01 0.45 0.42 93 1004.3
20260506200008 49 89 1.0 3.0 0.01 0.45 0.42 93 1004.3
20260506195519 49 77 0.0 3.0 0.01 0.45 0.42 92 1004.2
20260506195007 50 99 0.0 3.0 0.00 0.44 0.41 92 1004.1
20260506194526 50 353 0.0 3.0 0.00 0.44 0.41 91 1004.2
20260506194023 51 314 0.0 3.0 0.00 0.44 0.41 90 1004.3
20260506193508 52 79 1.0 5.0 0.00 0.44 0.41 89 1004.2
20260506193016 54 90 1.0 6.0 0.00 0.44 0.41 89 1004.1